Tracking 19795 objects as of 19-Jul-2019
HD Live streaming from Space Station
objects crossing your sky now

KAZEOSAT 2

Track KAZEOSAT 2 now!
10-day predictions
KAZEOSAT 2 is classified as:


NORAD ID: 40010
Int'l Code: 2014-033A
Perigee: 619.2 km
Apogee: 640.7 km
Inclination: 97.8 °
Period: 97.2 minutes
Semi major axis: 7000 km
RCS: Unknown
Launch date: June 19, 2014
Source: Kazakhstan (KAZ)
Launch site: Orenburg, Russia (OREN)
aabbcc
Your satellite tracking list
Your tracking list is empty




NASA's NSSDC Master Catalog

Two Line Element Set (TLE):
1 40010U 14033A   19199.81795841 -.00000003  00000-0  62320-5 0  9990
2 40010  97.8370  98.3665 0015400 319.2729  40.7331 14.82064856274758
Source of the keplerian elements: AFSPC